Location: Newark
(46.2358°N, 112.1211°W)
Time: 08:44:41
(UTC+00:00)

DELFI C3 - Pass Details

Date: 06 July 2020
Orbit: 533 x 552 km, 97.4° (Epoch: 12 August)

Event Time Altitude Azimuth Distance (km) Brightness Sun altitude
Rises 04:29:15 0° 211° (SSW) 2,712 ? -9.5°
Reaches altitude 10° 04:32:15 10° 237° (WSW) 1,827 ? -9.9°
Maximum altitude 04:34:24 14° 270° (W) 1,583 ? -10.1°
Drops below altitude 10° 04:36:33 10° 303° (WNW) 1,839 ? -10.4°
Sets 04:39:37 0° 329° (NNW) 2,741 ? -10.7°
